Regional Weather Roundup
Issued by NWS

Home | Current Version | Previous Version | Text Only | Print | Product List | Glossary On
Versions: 1 2 3 4 5 6 7 8 9 10 11 12 13 14 15 16 17 18 19 20 21 22 23 24 25 26 27 28 29 30 31 32 33 34 35 36 37 38 39 40 41 42 43 44 45 46 47 48 49 50
000
ASUS43 KMKX 050311
RWRWI

WISCONSIN REGIONAL WEATHER ROUNDUP
NATIONAL WEATHER SERVICE MILWAUKEE/SULLIVAN WI
1000 PM CDT WED MAY 04 2016

NOTE: "FAIR" INDICATES FEW OR NO CLOUDS BELOW 12,000 FEET WITH NO
SIGNIFICANT WEATHER AND/OR OBSTRUCTIONS TO VISIBILITY.

WIZ001-002-006>008-014>016-023>028-050400-
NORTHWEST WISCONSIN

CITY           SKY/WX    TMP DP  RH WIND       PRES   REMARKS
SUPERIOR ARPT  CLEAR     38  32  79 E3        30.01R
ASHLAND        CLEAR     37  35  92 NE3       30.01R
HAYWARD        CLEAR     40  28  62 CALM      30.00R
SIREN          CLEAR     45  25  44 CALM      29.98S
CUMBERLAND     CLEAR     45  27  49 E5        29.99R
RICE LAKE      CLEAR     48  29  48 NE6       30.01R
CHETEK         CLEAR     50  27  41 NE3       29.99R
LADYSMITH      CLEAR     46  29  52 NE5       30.01R
EAU CLAIRE     CLEAR     48  24  39 NE8       29.98R
MENOMONIE      CLEAR     50  22  33 NE5       29.99R
NEW RICHMOND   CLEAR     47  28  47 CALM      29.99R
OSCEOLA        CLEAR     46  30  52 CALM      30.01R HAZE
$$

WIZ003>005-009-010-017-018-050400-
NORTH CENTRAL WISCONSIN

CITY           SKY/WX    TMP DP  RH WIND       PRES   REMARKS
MANITOWISH WTR CLEAR     35  34  95 CALM      29.99R
ARBOR VITAE    CLEAR     37  31  79 CALM      29.98S
WOODRUFF       CLEAR     37  31  79 CALM      29.98S
RHINELANDER    CLEAR     40  30  67 CALM      29.98R
EAGLE RIVER    CLEAR     34  29  81 CALM      29.97R
LAND O LAKES   CLEAR     32  30  93 CALM      29.99R
PHILLIPS       CLEAR     40  30  66 CALM      29.99R
TOMAHAWK       CLEAR     40  31  70 CALM      29.98S
MEDFORD        CLEAR     41  31  67 N5        29.98R
MERRILL        CLEAR    N/A N/A N/A N6        29.98R
$$

WIZ029-030-035-036-043>047-050400-
CENTRAL WISCONSIN

CITY           SKY/WX    TMP DP  RH WIND       PRES   REMARKS
WAUSAU         CLEAR     47  31  53 N7        29.95R
MOSINEE        CLEAR     45  32  61 N7        29.97R
MARSHFIELD     CLEAR     47  31  53 N6        29.96R
STEVENS POINT  CLEAR     44  31  60 N6        29.97R
WAUPACA        CLEAR     48  33  55 N6        29.96R
WAUTOMA        CLEAR     47  32  56 N8        29.95R
WISC RAPIDS    CLEAR     47  30  51 NE8       29.97R
CAMP DOUGLAS   NOT AVBL
$$

WIZ011>013-019>022-031-037>040-048>050-050400-
NORTHEAST WISCONSIN

CITY           SKY/WX    TMP DP  RH WIND       PRES   REMARKS
ANTIGO         CLEAR     39  32  75 N9        29.96S WCI  33
SHAWANO        CLEAR     45  33  64 N10       29.97R
OCONTO         CLEAR     40  32  73 N6        29.97R
STURGEON BAY   CLEAR     39  28  65 N20G25    29.97R WCI  30
GREEN BAY      CLEAR     43  32  65 N14       29.96R
MANITOWOC      CLEAR     42  33  70 N12G22    29.94R
APPLETON       CLEAR     43  30  61 N15       29.93R
CLINTONVILLE   CLEAR     43  32  65 N7        29.96R
OSHKOSH        CLEAR     46  33  60 NE17G25   29.94R
$$

WIZ032>034-041-042-053>061-050400-
SOUTHWEST WISCONSIN

CITY           SKY/WX    TMP DP  RH WIND       PRES   REMARKS
LA CROSSE      CLEAR     55  23  28 N8        29.95R
SPARTA         CLEAR     48  28  44 NE5       29.98R
VIROQUA        CLEAR     46  25  43 N7        29.95R
BOSCOBEL       PTCLDY    54  23  30 NE6       29.94R
PRAIRIE DU CHI CLEAR     53  23  30 N5        29.93R
PLATTEVILLE    CLEAR     48  30  49 N9        29.92R
$$

WIZ056-057-062-063-064-067-068-050400-
SOUTH CENTRAL WISCONSIN

CITY           SKY/WX    TMP DP  RH WIND       PRES   REMARKS
REEDSBURG      CLEAR     50  32  50 N10G17    29.94R
BARABOO/DELLS  CLEAR     49  31  51 N6        29.94R
LONE ROCK      CLEAR     53  31  42 N9        29.94R
MINERAL POINT  CLEAR     50  27  40 N7        29.92R
MADISON        PTCLDY    47  34  60 N5        29.91R
MIDDLETON      CLEAR     49  35  57 N9        29.92R
WATERTOWN      CLEAR     45  35  69 N8        29.91R
MONROE         CLEAR     46  36  66 N12       29.90R
JANESVILLE     NOT AVBL
$$

WIZ051-052-058>065-066-070>072-050400-
SOUTHEAST WISCONSIN

CITY           SKY/WX    TMP DP  RH WIND       PRES   REMARKS
MILWAUKEE      PTCLDY    40  35  83 N16G23    29.91R WCI  31
WAUKESHA       CLEAR     37  34  87 NE5       29.93R WCI  34
MILWAUKEE/TIMM CLEAR     37  32  81 N3        29.93R
RACINE         CLEAR     41  34  76 N16       29.92R
BURLINGTON     CLEAR     39  33  80 NE5       29.91R
KENOSHA        CLEAR     41  34  76 N10       29.90R
FOND DU LAC    CLEAR     46  35  65 NE18      29.93R
SHEBOYGAN      CLEAR     41  33  73 N8        29.93R
WEST BEND      CLEAR     37  34  87 NE5       29.92R WCI  34
JUNEAU         CLEAR     44  34  70 NE8       29.93R
$$

LSZ147-162-050400-
LAKE SUPERIOR

STATION/POSITION TIME  TEMP    WIND        PRES    WAVE
                       AIR SEA DIR/SP/G            HT/PER
                 (UTC) (F)     (DEG/KT/KT) (MB)    (FT/S)
W MID LAKE BUOY  0250   36 36  330/  4/  4 1017.2S   1/ 4
DEVILS ISLAND    0300   41     140/  6/  8 1017.0R
SAXON HARBOR     0200   39      CALM  /  2 1015.6
$$

LMZ867-665-643>646-050400-
LAKE MICHIGAN

STATION/POSITION TIME  TEMP    WIND        PRES    WAVE
                       AIR SEA DIR/SP/G            HT/PER
                 (UTC) (F)     (DEG/KT/KT) (MB)    (FT/S)
CHAMBERS ISLAND  0200   42     340/ 18/ 22 1014.6
N MID LAKE BUOY  0250   39 38  330/ 17/ 21 1013.4R   3/ 5
NORTHPORT PIER   0221   41     340/ 15/ 24 1013.9R
ALGOMA LAKESHORE 0200          350/ 13/ 17   N/A
KEWAUNEE LAKESHO 0200   42                 1012.8R
SHEBOYGAN LAKESH 0300   42      10/ 17/ 19 1014.2R
PORT WASHINGTON  0240   41      10/  5/ 10 1014.2R
S MID LAKE BUOY  0250   41 40   10/ 27/ 33 1010.1R   9/ 8
KENOSHA   LAKESH 0300   43      10/ 23/ 29 1012.2R
$$

TC  - TEMPERATURE IN CELSIUS
VSB - VISIBILITY IN STATUTE MILES
WCI - WIND CHILL INDEX
HX  - HEAT INDEX





USA.gov is the U.S. government's official web portal to all federal, state and local government web resources and services.